Piesy001 Speed Test Results

        Days  
Piesy001 Piesy001
Share Query AVG Img MAX Img AVG bbc MAX bbc iFrame
  
 
Showing results 1 to 25 of 61 for Username Piesy001 arrow up Only Upload    arrow down Only Download   
Time arrow down ct    arrow up arrow down   Size    Speed ConnectID Provider TID
Thu Feb 16 2017 @ 7:58:35 am Sydney, AU US arrow 22.1 MB 29.93 Mbps 3.74 MB/s14502134607258Cadence Design historybsdFBSQvTshare history
Thu Feb 16 2017 @ 7:58:16 am Sydney, AU US arrow 54 MB 37.61 Mbps 4.7 MB/s14502134607258Cadence Design historyAy3G4Lbtjshare history
Wed Feb 01 2017 @ 9:41:42 am Sydney, AU US arrow 22 MB 30.94 Mbps 3.87 MB/s14502134607258Cadence Design historyZFkJvAtxSshare history
Wed Feb 01 2017 @ 9:41:27 am Sydney, AU US arrow 55.6 MB 60.97 Mbps 7.62 MB/s14502134607258Cadence Design historyBCu8k6Mbmshare history
Mon Jan 30 2017 @ 8:48:49 am Sydney, AU US arrow 19.1 MB 30.7 Mbps 3.84 MB/s14502134607258Cadence Design historymi8sKC12Sshare history
Mon Jan 30 2017 @ 8:48:33 am Sydney, AU US arrow 52.5 MB 47.85 Mbps 5.98 MB/s14502134607258Cadence Design historympAiIF95ushare history
Mon Jan 30 2017 @ 8:47:51 am Sydney, AU US arrow 19.4 MB 28.6 Mbps 3.58 MB/s14502134607258Cadence Design historyg3TaeUJ8Gshare history
Mon Jan 30 2017 @ 8:47:35 am Sydney, AU US arrow 51.5 MB 45.22 Mbps 5.65 MB/s14502134607258Cadence Design historyywjCFsYE9share history
Tue Jan 24 2017 @ 9:12:56 pm Sydney, AU US arrow 19.5 MB 30.31 Mbps 3.79 MB/s14502134607258Cadence Design historybamY3uSwrshare history
Tue Jan 24 2017 @ 9:12:40 pm Sydney, AU US arrow 47.6 MB 64.76 Mbps 8.09 MB/s14502134607258Cadence Design historyHcoYBOqRfshare history
Tue Jan 24 2017 @ 9:11:49 pm Sydney, AU US arrow 19.5 MB 30.88 Mbps 3.86 MB/s14502134607258Cadence Design history4QXNHCYILshare history
Tue Jan 24 2017 @ 9:11:34 pm Sydney, AU US arrow 48.5 MB 61.5 Mbps 7.69 MB/s14502134607258Cadence Design history5Ha6yFiq1share history
Tue Jan 10 2017 @ 10:40:09 pm Sydney, AU US arrow 19.6 MB 30.07 Mbps 3.76 MB/s14502134607258Cadence Design historyhz5vyRNKCshare history
Tue Jan 10 2017 @ 10:39:55 pm Sydney, AU US arrow 47.9 MB 69.78 Mbps 8.72 MB/s14502134607258Cadence Design historyfcd85YNq6share history
Mon Jan 02 2017 @ 11:27:40 pm Sydney, AU US arrow 22.8 MB 30.74 Mbps 3.84 MB/s14502134607258Cadence Design historyBcXlQxT3Rshare history
Mon Jan 02 2017 @ 11:24:16 pm Sydney, AU US arrow 22.8 MB 30.92 Mbps 3.86 MB/s14502134607258Cadence Design historywBd0yWemQshare history
Mon Jan 02 2017 @ 11:23:59 pm Sydney, AU US arrow 59.4 MB 40.31 Mbps 5.04 MB/s14502134607258Cadence Design historyEbak1hmY8share history
Mon Jan 02 2017 @ 11:23:17 pm Sydney, AU US arrow 22.6 MB 31.15 Mbps 3.89 MB/s14502134607258Cadence Design historya2AFYUxyhshare history
Mon Jan 02 2017 @ 11:22:59 pm Sydney, AU US arrow 64.9 MB 44.57 Mbps 5.57 MB/s14502134607258Cadence Design historyeP8CkTFstshare history
Sat Dec 31 2016 @ 10:08:50 pm Sydney, AU US arrow 22.6 MB 30.89 Mbps 3.86 MB/s14502134607258Cadence Design historyXcmA3iTUsshare history
Sat Dec 31 2016 @ 10:08:34 pm Sydney, AU US arrow 65.5 MB 65.96 Mbps 8.24 MB/s14502134607258Cadence Design history526O107Tdshare history
Sat Dec 31 2016 @ 9:37:46 pm Sydney, AU US arrow 22.5 MB 31.1 Mbps 3.89 MB/s14502134607258Cadence Design historyqM209oGmvshare history
Sat Dec 31 2016 @ 9:37:30 pm Sydney, AU US arrow 66.8 MB 66.79 Mbps 8.35 MB/s14502134607258Cadence Design historynBy5RfWPpshare history
Thu Dec 29 2016 @ 4:39:27 am Sydney, AU US arrow 18.6 MB 30.79 Mbps 3.85 MB/s14502134607258Cadence Design history3MVoraGg2share history
Thu Dec 29 2016 @ 4:38:54 am Sydney, AU US arrow 44.4 MB 69.27 Mbps 8.66 MB/s14502134607258Cadence Design history68XQpb2Veshare history
  
Displaying Internet Speed Test results for Username Piesy001
Speed Test Version 15.9
© 2017 TestMy Net LLC - TestMy.net - Terms & Privacy - Mobile